TimeEST,TemperatureF,Dew PointF,Humidity,Sea Level PressureIn,VisibilityMPH,Wind Direction,Wind SpeedMPH,Gust SpeedMPH,PrecipitationIn,Events,Conditions,WindDirDegrees,DateUTC
12:15 AM,68.0,66.2,94,30.09,7.0,South,8.1,-,N/A,,Scattered Clouds,170,2013-12-23 05:15:00
12:35 AM,69.8,66.2,88,30.08,10.0,South,12.7,17.3,N/A,,Mostly Cloudy,180,2013-12-23 05:35:00
12:55 AM,69.8,66.2,88,30.07,10.0,South,15.0,20.7,N/A,,Overcast,170,2013-12-23 05:55:00
1:15 AM,69.8,66.2,88,30.07,10.0,South,12.7,21.9,N/A,,Overcast,180,2013-12-23 06:15:00
1:35 AM,69.8,66.2,88,30.08,10.0,South,12.7,20.7,N/A,,Overcast,180,2013-12-23 06:35:00
1:55 AM,69.8,66.2,88,30.08,10.0,South,15.0,19.6,N/A,,Mostly Cloudy,180,2013-12-23 06:55:00
2:15 AM,69.8,66.2,88,30.08,10.0,South,12.7,-,N/A,,Overcast,180,2013-12-23 07:15:00
2:35 AM,69.8,66.2,88,30.07,10.0,South,12.7,-,N/A,,Overcast,180,2013-12-23 07:35:00
2:55 AM,69.8,66.2,88,30.06,10.0,South,13.8,19.6,N/A,,Overcast,180,2013-12-23 07:55:00
3:15 AM,69.8,66.2,88,30.06,10.0,South,12.7,18.4,N/A,,Overcast,180,2013-12-23 08:15:00
3:35 AM,69.8,66.2,88,30.06,10.0,South,11.5,-,N/A,,Overcast,190,2013-12-23 08:35:00
3:55 AM,69.8,66.2,88,30.06,10.0,South,12.7,16.1,N/A,,Overcast,190,2013-12-23 08:55:00
4:15 AM,71.6,68.0,88,30.06,10.0,South,11.5,17.3,N/A,,Overcast,190,2013-12-23 09:15:00
4:35 AM,71.6,68.0,88,30.05,10.0,South,13.8,20.7,N/A,,Overcast,180,2013-12-23 09:35:00
4:55 AM,71.6,68.0,88,30.05,10.0,South,13.8,-,N/A,,Overcast,190,2013-12-23 09:55:00
5:15 AM,71.6,66.2,83,30.04,10.0,South,13.8,19.6,N/A,,Overcast,180,2013-12-23 10:15:00
5:35 AM,71.6,66.2,83,30.04,10.0,South,13.8,24.2,N/A,,Overcast,180,2013-12-23 10:35:00
5:55 AM,71.6,66.2,83,30.04,10.0,South,11.5,19.6,N/A,,Mostly Cloudy,180,2013-12-23 10:55:00
6:15 AM,71.6,66.2,83,30.04,10.0,South,12.7,18.4,N/A,,Overcast,190,2013-12-23 11:15:00
6:35 AM,71.6,66.2,83,30.04,10.0,South,17.3,23.0,N/A,,Overcast,180,2013-12-23 11:35:00
6:55 AM,71.6,66.2,83,30.06,10.0,SSW,15.0,25.3,N/A,Rain,Light Rain,200,2013-12-23 11:55:00
7:15 AM,69.8,66.2,88,30.07,10.0,SW,10.4,19.6,N/A,Rain,Light Rain,220,2013-12-23 12:15:00
7:35 AM,69.8,66.2,88,30.07,10.0,SSW,10.4,-,N/A,,Overcast,200,2013-12-23 12:35:00
7:55 AM,71.6,66.2,83,30.07,10.0,South,9.2,17.3,N/A,,Overcast,190,2013-12-23 12:55:00
8:15 AM,71.6,68.0,88,30.07,10.0,South,10.4,-,N/A,,Overcast,190,2013-12-23 13:15:00
8:35 AM,71.6,68.0,88,30.07,10.0,South,11.5,18.4,N/A,,Overcast,180,2013-12-23 13:35:00
8:55 AM,73.4,68.0,83,30.07,10.0,South,12.7,19.6,N/A,,Overcast,190,2013-12-23 13:55:00
9:15 AM,73.4,68.0,83,30.07,10.0,South,12.7,19.6,N/A,,Overcast,180,2013-12-23 14:15:00
9:35 AM,73.4,68.0,83,30.07,10.0,South,16.1,21.9,N/A,,Overcast,190,2013-12-23 14:35:00
9:55 AM,73.4,66.2,78,30.07,10.0,South,16.1,21.9,N/A,,Overcast,190,2013-12-23 14:55:00
10:15 AM,75.2,66.2,73,30.07,10.0,SSW,19.6,26.5,N/A,,Overcast,200,2013-12-23 15:15:00
10:35 AM,73.4,66.2,78,30.07,10.0,South,15.0,23.0,N/A,,Overcast,190,2013-12-23 15:35:00
10:55 AM,73.4,66.2,78,30.06,10.0,South,17.3,23.0,N/A,,Overcast,190,2013-12-23 15:55:00
11:15 AM,73.4,66.2,78,30.06,10.0,South,19.6,26.5,N/A,,Mostly Cloudy,190,2013-12-23 16:15:00
11:35 AM,73.4,68.0,83,30.05,10.0,SSW,16.1,25.3,N/A,,Mostly Cloudy,200,2013-12-23 16:35:00
11:55 AM,75.2,68.0,78,30.04,10.0,SSW,13.8,21.9,N/A,,Mostly Cloudy,200,2013-12-23 16:55:00
12:15 PM,73.4,64.4,73,30.05,10.0,West,18.4,24.2,N/A,,Overcast,260,2013-12-23 17:15:00
12:35 PM,66.2,64.4,94,30.04,7.0,SW,8.1,16.1,0.07,Rain,Rain,230,2013-12-23 17:35:00
12:55 PM,66.2,64.4,94,30.03,7.0,WSW,10.4,17.3,N/A,Rain,Light Rain,240,2013-12-23 17:55:00
1:15 PM,66.2,64.4,94,30.02,10.0,SW,9.2,16.1,N/A,,Mostly Cloudy,220,2013-12-23 18:15:00
1:35 PM,69.8,66.2,88,30.01,10.0,SW,9.2,-,N/A,,Mostly Cloudy,230,2013-12-23 18:35:00
1:55 PM,69.8,64.4,83,30.01,10.0,SW,9.2,17.3,N/A,,Mostly Cloudy,230,2013-12-23 18:55:00
2:15 PM,66.2,64.4,94,30.01,10.0,SW,8.1,-,0.02,Rain,Light Rain,220,2013-12-23 19:15:00
2:35 PM,66.2,64.4,94,30.01,10.0,SSW,10.4,-,0.02,,Light Drizzle,200,2013-12-23 19:35:00
2:55 PM,68.0,64.4,88,30.02,10.0,SW,8.1,-,N/A,Rain,Rain,220,2013-12-23 19:55:00
3:15 PM,68.0,64.4,88,30.01,10.0,SSW,5.8,-,0.01,Rain,Light Rain,210,2013-12-23 20:15:00
3:35 PM,68.0,64.4,88,30.01,10.0,SW,5.8,-,0.01,,Drizzle,220,2013-12-23 20:35:00
3:55 PM,68.0,64.4,88,30.01,10.0,SW,4.6,-,N/A,,Overcast,220,2013-12-23 20:55:00
4:15 PM,68.0,64.4,88,30.01,10.0,SW,4.6,-,N/A,,Overcast,220,2013-12-23 21:15:00
4:35 PM,68.0,64.4,88,30.01,10.0,SW,5.8,-,N/A,Rain,Light Rain,220,2013-12-23 21:35:00
4:55 PM,66.2,64.4,94,30.02,10.0,SSW,5.8,-,0.01,Rain,Light Rain,210,2013-12-23 21:55:00
5:15 PM,66.2,64.4,94,30.02,10.0,South,3.5,-,0.01,Rain,Rain,170,2013-12-23 22:15:00
5:35 PM,66.2,64.4,94,30.02,10.0,Calm,Calm,-,0.02,Rain,Light Rain,0,2013-12-23 22:35:00
5:55 PM,66.2,64.4,94,30.02,10.0,Calm,Calm,-,N/A,Rain,Light Rain,0,2013-12-23 22:55:00
6:15 PM,66.2,64.4,94,30.03,7.0,Calm,Calm,-,N/A,,Drizzle,0,2013-12-23 23:15:00
6:35 PM,57.2,55.4,94,30.06,10.0,North,12.7,26.5,0.02,Rain,Light Rain,10,2013-12-23 23:35:00
6:55 PM,55.4,55.4,100,30.08,10.0,North,10.4,16.1,0.01,Rain,Rain,360,2013-12-23 23:55:00
7:15 PM,55.4,53.6,94,30.09,10.0,North,10.4,16.1,0.02,Rain,Light Rain,10,2013-12-24 00:15:00
7:35 PM,55.4,53.6,94,30.08,10.0,NNE,10.4,25.3,0.04,Rain,Light Rain,20,2013-12-24 00:35:00
7:55 PM,53.6,53.6,100,30.09,10.0,NNE,18.4,25.3,N/A,Rain,Light Rain,20,2013-12-24 00:55:00
8:15 PM,51.8,51.8,100,30.10,10.0,North,11.5,20.7,0.01,Rain,Rain,10,2013-12-24 01:15:00
8:35 PM,51.8,50.0,94,30.11,10.0,NNE,10.4,19.6,0.05,Rain,Rain,20,2013-12-24 01:35:00
8:55 PM,50.0,48.2,94,30.12,7.0,North,11.5,19.6,0.03,Rain,Rain,360,2013-12-24 01:55:00
9:15 PM,48.2,46.4,93,30.13,10.0,North,10.4,23.0,0.05,Rain,Light Rain,360,2013-12-24 02:15:00
9:35 PM,46.4,46.4,100,30.14,10.0,North,11.5,19.6,0.06,Rain,Light Rain,10,2013-12-24 02:35:00
9:55 PM,46.4,46.4,100,30.14,10.0,North,11.5,17.3,0.02,Rain,Rain,10,2013-12-24 02:55:00
10:15 PM,46.4,46.4,100,30.15,10.0,North,10.4,19.6,0.05,Rain,Light Rain,10,2013-12-24 03:15:00
10:35 PM,46.4,44.6,93,30.15,10.0,North,10.4,19.6,0.05,,Drizzle,350,2013-12-24 03:35:00
10:55 PM,46.4,44.6,93,30.15,7.0,North,10.4,23.0,N/A,,Light Drizzle,360,2013-12-24 03:55:00
11:15 PM,44.6,44.6,100,30.15,10.0,North,11.5,19.6,0.01,Rain,Light Rain,360,2013-12-24 04:15:00
11:35 PM,44.6,44.6,100,30.15,10.0,North,6.9,18.4,0.04,Rain,Rain,350,2013-12-24 04:35:00
11:55 PM,44.6,44.6,100,30.16,10.0,North,8.1,-,N/A,Rain,Light Rain,350,2013-12-24 04:55:00